Hourly Data Report for October 28, 2016

All times are specified in Local Standard Time (LST). Add 1 hour to adjust for Daylight Saving Time where and when it is observed.

CORAL HARBOUR A
NUNAVUT

64°11'36.000" N
83°21'34.000" W
62.20 m
2301002
71915
YZS

Download Data

Hourly Data (October 2016)
Hourly Data Report for October 28, 2016
Temp Definition
°C
Dew Point Temp Definition
°C
Rel Hum Definition
%
Wind Dir Definition
10's deg

Wind Spd Definition
km/h
Visibility Definition
km
Stn Press Definition
kPa
Hmdx Definition


Wind Chill Definition


Weather Definition


TIME
00:00 Legend Double Dagger -19.0 -22.1 77 34 27 24.1 100.50   -31 LegendNANA
01:00 Legend Double Dagger -18.2 -21.2 78 35 27 24.1 100.48   -30 Mainly Clear
02:00 Legend Double Dagger -18.4 -21.2 79 35 24 24.1 100.46   -29 LegendNANA
03:00 Legend Double Dagger -16.8 -19.5 80 36 24 24.1 100.43   -27 LegendNANA
04:00 Legend Double Dagger -15.2 -18.1 79 35 26 24.1 100.39   -26 Mainly Clear
05:00 Legend Double Dagger -15.2 -18.2 78 36 31 24.1 100.36   -26 LegendNANA
06:00 Legend Double Dagger -16.0 -19.3 76 36 34 24.1 100.33   -28 LegendNANA
07:00 Legend Double Dagger -16.0 -19.2 77 36 30 24.1 100.32   -27 Mainly Clear
08:00 Legend Double Dagger -16.5 -19.8 76 36 31 24.1 100.29   -28 LegendNANA
09:00 Legend Double Dagger -18.6 -21.4 79 33 26 24.1 100.26   -30 LegendNANA
10:00 Legend Double Dagger -17.5 -20.6 77 35 27 24.1 100.23   -29 Mainly Clear
11:00 Legend Double Dagger -17.0 -20.1 77 34 24 24.1 100.21   -28 LegendNANA
12:00 Legend Double Dagger -16.1 -19.4 76 33 22 24.1 100.18   -26 LegendNANA
13:00 Legend Double Dagger -14.6 -18.0 76 34 25 24.1 100.15   -25 Clear
14:00 Legend Double Dagger -15.2 -18.9 74 34 31 24.1 100.13   -26 LegendNANA
15:00 Legend Double Dagger -15.8 -19.4 74 33 29 24.1 100.09   -27 LegendNANA
16:00 Legend Double Dagger -16.9 -20.3 75 34 18 24.1 100.08   -26 Clear
17:00 Legend Double Dagger -16.8 -20.1 76 35 23 24.1 100.06   -27 LegendNANA
18:00 Legend Double Dagger -17.5 -20.6 77 34 27 24.1 100.02   -29 Blowing Snow
19:00 Legend Double Dagger -17.9 -21.2 76 34 25 24.1 100.03   -29 Clear
20:00 Legend Double Dagger -18.1 -21.4 76 32 30 24.1 100.01   -30 Blowing Snow
21:00 Legend Double Dagger -18.4 -21.8 75 35 25 24.1 99.98   -30 LegendNANA
22:00 Legend Double Dagger -19.6 -23.0 75 34 23 24.1 99.93   -31 Clear
23:00 Legend Double Dagger -21.7 -24.3 80 32 14 24.1 99.87   -31 LegendNANA

Notes on Data Quality.

Legend

  • E = Estimated
  • M = Missing
  • NA = Not Available
  • ‡ = Partner data that is not subject to review by the National Climate Archives
Date modified: